SCP
1 1 1 1 1 1 1 0 1 1 1 1 1 0 0 0 0 1 0 0 0 0 0 0 0 0 0 0 0 0 0 0 0 0 0 0 0 0 0 0 0 0 0
1 1 1 1 1 1 1 1 1 1 1 1 0 0 0 0 1 1 1 0 0 0 0 0 0 0 0 0 0 0 0 0 0 0 0 0 0 0 0 0 0 0 0
1 1 1 1 1 1 1 1 1 1 1 0 0 0 0 0 1 1 1 1 1 0 0 0 0 0 0 0 0 0 0 0 0 0 0 0 0 0 0 0 0 0 0
2 2 1 1 1 1 1 1 1 0 1 1 1 0 0 0 0 1 1 1 1 1 1 1 1 0 0 0 0 0 0 0 0 0 0 0 0 0 0 0 0 0 0
2 2 2 1 1 1 1 1 1 1 1 1 1 0 0 0 1 1 1 1 1 1 1 1 1 1 0 0 0 0 0 0 0 0 0 0 0 0 0 0 0 0 0
2 2 2 1 1 1 1 1 1 1 1 1 1 0 0 0 1 1 1 1 1 1 1 1 1 1 1 0 0 0 0 0 0 0 0 0 0 0 0 0 0 0 0
2 2 1 1 1 1 1 1 1 1 1 1 1 1 0 0 1 1 1 1 1 1 1 2 1 1 1 1 1 1 1 1 1 1 1 1 1 1 1 0 0 0 0
2 2 1 1 1 1 2 2 1 1 1 1 1 1 0 0 0 1 1 1 1 1 2 2 2 2 1 1 1 1 1 1 1 1 1 1 1 1 1 1 1 1 0
2 2 2 1 1 1 2 2 1 1 1 1 1 1 1 1 0 1 1 1 1 1 1 2 2 2 2 2 1 1 1 1 1 1 1 1 1 1 1 1 1 1 1
2 2 2 2 1 1 1 1 1 1 1 1 1 1 1 1 1 1 1 1 1 2 1 2 2 2 2 2 2 1 1 1 1 2 2 2 2 1 1 1 1 1 1
2 2 2 2 2 1 1 1 2 2 1 1 1 1 1 1 1 1 1 1 1 1 2 2 2 2 2 2 2 2 1 1 1 1 2 2 2 2 2 1 1 1 1
2 2 2 3 3 2 2 2 2 2 2 1 1 1 1 1 1 1 1 1 1 1 1 2 2 2 2 2 2 2 2 1 1 1 1 1 2 2 2 2 2 1 1
2 2 2 3 3 3 2 2 2 2 2 2 2 2 2 1 1 1 1 1 1 1 1 2 2 3 3 2 2 2 1 1 1 1 1 1 1 1 2 2 2 2 1
2 2 2 3 3 3 2 2 2 2 2 2 2 2 2 2 2 1 1 1 1 1 1 1 2 3 3 2 2 1 1 1 1 0 0 0 1 1 1 1 1 1 1
1 2 2 2 2 2 2 2 2 2 2 2 2 2 2 2 2 2 2 2 1 1 1 1 2 2 2 2 1 1 1 1 1 0 0 0 0 0 0 0 1 1 1
1 2 2 2 2 2 2 2 2 2 2 2 2 2 2 2 2 2 2 2 2 1 1 2 2 2 2 1 1 1 1 1 1 0 0 0 0 0 0 0 0 0 0
2 2 2 2 2 2 2 2 2 2 2 2 2 3 3 2 2 3 3 3 3 2 2 2 2 2 2 1 1 1 1 1 1 0 0 0 0 0 0 0 0 0 0
2 2 2 2 2 2 2 2 2 2 2 2 2 2 3 3 3 3 4 3 3 2 2 2 2 2 1 1 1 1 1 1 1 0 0 0 0 0 0 0 0 0 0
2 2 2 2 2 2 2 2 3 2 2 2 2 2 2 2 3 3 3 3 3 3 3 2 2 1 1 1 1 1 1 1 1 0 0 0 0 0 0 0 0 0 0
2 2 2 2 2 2 2 2 3 2 2 1 1 1 2 2 2 2 2 2 2 2 2 2 1 1 1 1 1 1 1 1 1 0 0 0 0 0 0 0 0 0 0
3 3 2 2 2 2 1 2 2 2 1 1 1 1 1 1 1 1 1 1 1 2 1 1 1 1 1 1 1 1 1 1 1 0 0 0 0 0 0 0 0 0 0
3 3 3 2 2 1 1 1 1 1 1 1 1 1 1 1 1 1 1 0 1 1 1 1 1 1 1 2 1 1 1 1 1 0 0 0 0 0 0 0 0 0 0
3 3 3 2 2 1 1 0 1 1 1 1 1 1 1 1 0 0 0 0 0 0 0 1 1 1 1 2 2 1 1 1 1 0 0 0 0 0 0 0 0 0 0
3 3 3 3 2 2 1 0 0 0 1 1 1 1 1 1 0 0 0 0 1 1 0 0 1 1 1 2 2 2 1 1 1 1 0 0 0 0 0 0 0 0 0
3 2 2 3 3 2 1 0 0 0 1 1 1 1 1 1 0 0 1 1 1 1 1 0 0 1 1 1 2 2 1 1 1 1 0 0 0 0 0 0 0 0 0
3 2 2 3 3 2 1 0 0 0 1 1 1 1 1 1 0 0 1 1 1 1 1 1 0 0 0 1 1 1 1 1 1 1 0 0 0 0 0 0 0 0 0
Wind_Speed
3 4 3 3 3 3 3 2 1 2 1 1 1 2 3 3 5 6 6 11 11 9 9 8 8 7 7 7 7 6 6 6 6 6 5 5 5 5 4 4 3 3 3
3 4 4 2 2 2 3 2 3 2 1 1 1 1 2 2 4 6 7 8 10 9 9 8 8 8 7 7 7 6 6 6 6 5 5 5 5 5 4 3 3 2 2
4 3 3 2 2 3 3 2 2 2 2 2 2 2 1 2 2 5 7 6 6 9 9 8 8 8 8 8 8 7 6 6 6 5 5 5 5 5 4 3 3 3 2
4 3 3 2 2 2 2 2 1 2 2 1 2 2 2 2 2 3 4 6 6 6 8 10 9 9 9 9 9 8 7 7 6 6 6 5 5 5 4 4 3 3 3
4 3 2 2 2 2 2 3 3 1 1 1 2 2 2 3 2 3 3 4 5 6 6 9 10 9 10 10 10 9 9 8 7 7 7 6 6 5 5 4 4 3 3
5 4 3 3 3 2 2 1 1 1 1 2 2 2 2 2 3 3 3 3 4 6 7 7 7 7 11 10 10 10 9 9 8 8 8 7 7 6 6 5 4 3 3
5 4 2 3 3 2 3 3 2 3 2 2 1 1 1 2 3 3 3 2 3 5 5 7 7 5 6 10 10 10 10 10 9 9 8 7 7 6 5 5 4 4 4
5 5 3 3 3 2 3 3 2 1 2 2 2 1 1 1 2 4 3 4 4 3 5 7 6 6 5 5 7 12 11 10 10 9 8 7 7 6 5 5 4 4 3
6 4 5 4 3 3 3 3 3 3 3 2 2 2 1 1 1 2 4 4 4 3 3 4 6 6 6 5 6 10 12 11 10 10 9 8 7 6 6 6 5 5 4
5 5 5 4 4 3 3 4 4 3 3 3 2 2 2 2 1 1 1 2 3 3 3 3 4 5 5 4 5 9 12 11 11 10 9 8 8 7 7 6 6 5 4
5 5 4 4 3 3 4 4 3 4 3 3 3 3 3 2 3 2 2 2 1 2 3 2 2 3 3 4 4 7 12 12 11 10 8 7 7 8 8 7 6 5 4
4 5 5 4 4 4 4 3 3 4 3 3 3 2 2 2 2 3 3 3 2 2 2 2 3 3 3 3 4 7 10 10 9 9 8 7 6 6 6 6 5 4 4
3 4 5 4 4 4 4 4 4 4 4 4 4 3 2 3 2 2 2 2 2 2 1 1 1 2 3 3 4 10 10 10 9 8 8 7 6 6 6 5 5 4 3
3 4 4 4 5 4 5 4 3 4 3 4 5 4 3 2 2 2 2 2 2 2 1 2 0 2 2 3 6 9 7 11 10 9 8 7 7 7 7 6 6 6 5
2 3 4 4 4 4 4 4 3 4 3 4 4 4 3 3 2 2 2 2 3 3 2 2 1 1 3 3 6 5 6 10 10 10 9 9 9 8 8 8 7 7 7
1 2 2 3 3 3 4 4 4 3 3 3 3 3 3 2 2 1 1 2 2 3 2 1 1 1 2 4 7 5 7 11 10 10 10 10 9 9 8 8 7 7 7
2 2 2 2 2 3 3 3 4 4 4 3 3 2 2 1 1 1 1 1 1 1 2 1 1 2 4 4 4 4 5 4 5 9 10 9 9 9 8 8 8 7 6
1 1 1 1 2 2 2 2 3 3 3 3 3 2 2 2 2 2 1 1 1 1 2 3 2 2 3 4 4 4 4 4 4 8 9 9 9 9 9 8 8 7 6
1 1 1 1 1 0 0 1 2 1 2 2 2 2 2 2 2 2 1 1 1 1 2 3 3 2 2 3 4 3 4 3 4 6 8 8 9 10 9 9 8 7 6
1 1 1 1 1 1 1 0 1 1 1 1 1 1 1 1 2 2 2 1 1 1 2 3 3 3 2 2 3 3 3 2 3 5 6 6 8 9 9 9 8 7 6
2 2 2 2 2 1 1 1 1 1 2 2 1 1 1 1 2 1 1 1 1 2 2 3 3 3 2 2 3 3 4 3 3 3 4 4 4 4 4 6 7 7 6
3 3 2 2 2 2 3 3 2 2 2 2 2 2 2 3 4 4 4 5 3 2 3 3 3 3 3 2 2 3 3 4 3 2 3 3 3 3 3 3 5 6 6
3 3 3 3 3 4 5 4 4 3 3 3 2 2 2 3 3 3 4 6 6 6 4 3 4 3 3 3 3 4 3 3 3 3 3 3 3 3 3 5 9 7 5
3 3 3 3 3 4 5 5 5 4 3 3 3 2 3 3 2 3 5 5 5 5 4 3 3 3 3 3 3 4 5 5 4 3 2 2 2 2 3 4 7 7 5
3 3 3 3 3 3 3 3 3 3 3 3 3 3 3 3 3 4 5 5 5 5 8 10 9 7 8 7 5 4 4 4 4 3 1 1 2 2 2 3 4 7 6
3 3 3 3 3 2 3 2 2 3 3 3 3 3 5 4 4 4 4 5 5 4 5 6 6 6 6 6 5 3 3 4 4 3 1 1 1 1 1 1 2 3 4
Wind_Direction
144 139 140 156 170 155 163 174 152 129 115 126 119 86 74 92 109 119 131 148 149 153 156 158 160 158 157 156 153 151 151 151 151 149 150 151 152 149 146 144 140 140 136
130 135 145 157 156 150 157 161 157 152 172 140 105 106 113 106 111 128 140 153 159 164 169 172 173 172 171 171 168 168 167 164 164 165 167 167 169 169 166 160 161 166 159
140 147 143 165 157 151 148 159 158 165 185 175 161 152 137 122 137 140 148 156 164 174 180 182 184 184 185 185 185 185 184 182 179 178 179 179 180 182 182 182 184 184 178
159 152 155 167 155 156 153 164 197 191 190 182 173 177 153 137 154 166 164 167 165 172 184 190 189 191 195 196 196 195 194 191 189 189 190 188 187 186 185 189 192 193 196
163 172 163 149 169 156 169 193 182 195 176 201 191 186 169 166 181 197 183 177 169 162 168 184 191 192 200 203 202 200 198 195 194 196 197 197 196 193 192 195 198 199 203
173 185 177 171 190 164 172 203 157 182 193 215 237 185 187 180 183 197 195 186 172 173 173 170 184 200 207 208 207 204 201 200 200 201 201 202 202 199 198 200 202 201 203
181 191 189 167 195 179 183 190 193 199 213 212 217 209 228 213 199 193 189 185 188 188 176 168 182 186 195 210 210 206 207 207 204 202 202 202 204 199 198 201 201 201 205
180 185 187 192 190 187 191 203 201 213 227 208 198 183 237 250 242 219 189 189 200 194 183 182 182 182 183 180 200 207 208 208 205 201 198 197 197 194 192 194 193 187 190
189 195 182 200 194 194 190 201 202 213 236 244 214 192 196 206 259 250 214 196 184 190 196 179 184 182 192 181 183 199 204 202 201 200 196 193 191 190 189 188 186 182 180
196 196 188 195 200 216 194 202 201 210 218 240 251 229 214 197 184 271 285 209 178 194 211 199 187 177 183 174 172 174 189 193 192 194 192 188 186 187 186 186 185 180 174
194 201 193 192 201 216 216 222 196 208 219 229 238 229 221 224 208 202 230 251 223 202 195 191 174 168 178 179 178 173 174 181 184 185 183 183 186 188 187 185 183 178 175
190 199 197 199 209 219 221 218 215 215 231 246 254 254 234 221 221 211 211 216 221 232 185 177 176 175 170 163 177 157 161 166 170 171 170 172 177 177 172 171 174 177 184
192 198 199 195 206 215 217 210 214 225 222 236 245 256 256 247 232 222 203 216 221 230 211 204 180 156 161 148 146 146 152 151 154 157 157 159 157 150 148 146 145 143 140
194 192 197 200 203 210 220 210 211 221 222 229 238 240 250 260 249 222 209 208 224 231 207 209 180 134 123 126 134 144 144 145 145 146 144 140 133 129 126 120 112 106 102
208 195 199 204 207 213 222 211 218 224 215 222 235 235 241 252 256 245 226 209 206 219 228 214 163 126 125 120 133 131 126 132 136 136 134 129 126 121 116 112 107 102 97
209 198 196 204 207 211 216 213 219 224 219 225 231 237 242 253 263 256 246 249 218 202 207 196 108 93 101 114 116 115 119 126 131 134 134 132 129 126 124 120 116 110 104
202 205 203 201 204 210 213 212 223 219 217 225 228 214 217 237 271 271 245 235 229 184 183 183 89 102 96 99 108 107 112 118 129 135 138 137 134 130 126 121 116 109 105
191 185 189 194 209 215 216 214 227 220 211 221 228 221 223 219 228 252 249 240 226 210 165 160 134 114 107 121 120 121 123 127 125 126 127 128 126 122 118 114 112 109 102
110 115 141 178 203 208 236 226 219 215 216 221 228 226 229 222 239 242 225 225 227 212 151 154 151 131 118 124 118 118 113 112 133 126 122 121 121 118 115 112 109 105 102
127 111 96 72 55 28 360 313 184 176 172 165 197 221 240 217 218 231 225 218 206 180 146 144 140 137 128 134 134 143 133 127 126 124 114 116 118 119 117 115 114 110 106
118 94 84 70 51 41 13 12 103 130 116 93 74 63 46 85 90 124 189 185 178 159 153 152 144 137 140 151 163 166 151 136 106 111 110 111 116 110 115 123 123 123 118
89 87 83 79 64 38 32 61 92 91 93 98 88 73 74 77 90 93 90 83 92 143 161 158 151 146 146 144 144 149 145 146 140 136 128 120 125 119 120 121 134 138 137
81 76 78 80 74 50 57 69 82 94 84 77 73 73 78 80 91 109 98 89 75 75 107 142 140 149 152 163 154 144 135 129 124 149 135 126 135 124 130 134 144 142 143
85 80 74 76 78 61 68 87 90 99 87 77 73 83 85 75 65 102 104 96 79 59 67 97 114 120 119 136 149 149 139 114 93 93 102 119 138 133 128 138 161 162 168
98 92 89 86 82 66 60 93 119 120 109 97 85 71 78 79 67 104 119 112 103 89 71 79 84 92 92 94 104 116 128 135 126 116 94 113 126 121 125 152 181 188 195
116 110 98 93 95 83 62 74 133 142 126 114 101 89 72 68 68 87 116 121 119 111 108 98 89 93 98 99 100 108 133 139 129 122 109 109 120 119 129 158 173 186 206